Theta_e
344 345 347 349 350 350 350 350 350 349 349 349 349 350 349 348 346 346 346 347 348 348 349 349 349 348 348 349 349 350 350 350 350 350 350 351 350 350 349 349 349 348 349 347 346 345 343 341 341 340 341 342 343 343 343 345 348 351 352 352 351 351 350 351 352 352 351 350 350 349 349 350 349 350 350 350 350 351 352 352 352 352 352 351 350
342 345 346 348 350 350 351 351 350 350 348 348 348 349 348 347 346 346 344 344 345 346 348 348 348 348 348 348 348 349 349 349 349 349 350 350 351 351 350 350 350 350 350 348 347 346 344 342 341 340 341 342 343 344 343 345 348 351 353 352 351 350 350 351 351 351 351 350 350 350 350 350 350 350 350 350 350 351 351 351 353 353 353 352 352
339 343 346 347 349 350 351 352 351 351 350 348 347 347 347 347 346 346 345 344 343 344 345 345 345 345 344 345 346 348 348 348 349 348 348 349 350 350 351 351 351 351 351 349 348 349 347 345 343 341 342 344 344 344 345 345 346 349 352 352 351 351 351 351 351 351 351 350 350 349 349 350 350 350 350 350 351 351 351 351 351 351 352 352 351
336 339 343 345 347 348 350 352 352 352 351 351 350 348 347 347 347 347 346 344 343 342 342 342 341 340 340 340 343 345 347 348 348 348 348 349 350 350 351 351 351 351 350 350 349 349 349 347 345 344 345 346 346 346 346 346 345 346 348 350 351 350 350 351 351 351 351 350 349 349 349 349 349 350 350 351 351 351 351 351 351 351 351 351 351
334 336 337 340 343 346 348 350 352 352 352 352 352 351 349 347 347 347 346 345 343 341 340 339 337 337 338 339 341 344 346 347 348 347 347 349 349 350 351 351 351 351 350 350 349 349 349 348 347 346 347 346 346 347 347 347 347 346 347 350 351 351 350 350 350 352 352 351 350 350 350 350 350 350 350 350 351 351 352 351 351 350 350 350 351
334 334 335 337 340 343 346 348 350 351 351 352 352 352 351 350 348 348 347 346 344 342 341 338 337 336 337 339 341 343 344 344 344 345 345 348 348 349 351 351 350 351 350 350 350 350 350 349 348 347 346 347 346 348 348 348 348 348 349 350 352 352 351 350 350 352 351 350 350 350 350 351 350 350 350 350 351 351 351 351 351 350 350 350 350
335 335 335 336 339 342 345 346 348 349 350 351 351 350 351 350 350 348 347 346 345 344 342 340 339 337 338 339 339 340 342 344 345 346 345 345 346 348 350 351 350 351 351 351 350 350 350 350 349 348 347 347 348 348 349 349 349 349 349 350 352 353 352 350 350 351 351 350 350 350 350 350 350 349 350 350 351 351 351 351 350 350 350 350 349
335 336 335 336 339 343 345 346 348 349 349 350 350 350 349 349 349 349 348 348 347 347 345 343 341 340 340 340 338 338 341 344 345 347 346 345 345 347 349 351 350 350 351 351 350 350 350 349 350 349 348 349 348 347 348 348 349 349 350 350 352 353 352 350 350 351 351 350 350 349 349 349 349 349 349 350 350 350 350 350 350 349 350 350 350
335 336 336 337 340 343 345 347 348 348 349 349 349 349 350 349 349 349 349 349 349 348 348 347 346 344 344 342 341 340 341 342 343 346 347 346 346 348 349 350 350 349 350 350 350 350 350 350 350 349 350 349 347 346 346 347 348 349 351 351 351 352 352 351 350 350 350 351 350 349 349 348 347 348 348 348 348 348 350 350 350 350 349 349 349
335 335 336 337 340 343 345 347 348 349 349 349 349 349 349 349 349 349 350 351 350 350 349 349 349 348 348 347 344 344 344 343 343 345 346 347 348 348 349 350 350 349 349 350 350 350 350 349 350 350 351 350 348 347 347 347 348 349 351 351 351 352 352 350 350 350 351 351 350 349 348 346 346 347 347 347 347 348 349 350 349 349 348 348 348
335 335 335 337 339 341 343 345 348 349 349 350 350 350 349 349 349 348 349 350 351 351 351 350 350 349 349 349 348 348 347 347 346 345 346 346 347 349 350 349 350 350 350 350 350 350 350 349 349 349 350 351 350 349 348 347 347 348 349 350 351 351 351 350 350 350 351 351 350 349 347 346 346 347 347 347 348 349 349 349 349 348 348 348 348
335 335 334 336 338 339 340 342 346 347 349 350 350 350 350 349 349 350 349 350 351 352 352 351 350 349 349 349 348 348 348 348 348 348 348 348 348 350 351 351 350 350 351 351 351 351 350 349 349 349 349 350 350 350 349 346 346 347 349 351 351 351 351 350 350 351 351 351 351 349 347 346 347 347 347 348 348 349 349 349 349 348 348 348 348
336 335 334 335 337 339 339 340 342 345 348 349 349 349 349 349 349 349 350 350 351 351 351 351 351 350 349 349 348 348 348 347 348 349 350 350 349 351 352 352 352 351 351 351 351 351 351 350 351 351 350 351 351 350 349 347 345 346 349 350 351 351 350 350 350 352 352 351 351 349 347 347 347 347 347 348 348 348 348 348 349 349 349 349 349
336 335 334 335 337 338 338 340 340 341 344 346 347 348 348 349 349 349 349 349 349 350 350 349 349 349 349 348 348 348 348 347 348 349 350 351 351 350 351 351 352 352 352 351 350 351 351 351 352 353 352 352 351 350 348 346 345 346 349 350 350 350 350 349 349 351 351 351 350 349 348 347 347 347 347 347 348 347 348 348 349 348 348 349 349
335 335 334 335 336 336 337 338 339 339 341 343 345 346 347 348 348 348 348 348 349 349 349 349 349 349 348 348 348 348 348 348 348 349 350 350 350 350 349 350 350 350 349 349 349 349 349 350 351 353 353 352 352 350 348 346 346 348 349 350 349 349 349 349 349 349 350 350 350 349 348 348 347 347 347 347 347 347 348 349 349 348 348 348 349
334 334 335 335 336 336 336 337 337 338 339 340 343 345 346 347 347 347 346 347 348 349 349 349 349 349 349 349 348 348 347 348 349 349 349 349 349 349 349 348 348 348 348 349 349 349 350 350 351 352 353 351 351 350 348 348 349 350 350 349 349 349 349 348 349 349 349 350 350 348 348 347 347 347 347 347 347 348 348 349 349 348 348 348 348
334 335 335 335 335 336 336 336 337 338 339 340 341 343 345 347 347 347 347 347 347 348 349 348 348 348 348 347 347 346 345 346 347 347 348 348 348 349 349 349 349 349 349 349 349 350 350 350 351 352 351 350 349 349 349 350 349 350 349 349 349 349 348 348 349 349 349 349 349 348 347 347 347 347 347 347 347 348 349 349 348 348 348 348 347
334 335 335 335 335 335 336 336 337 338 339 340 340 342 343 345 346 347 347 347 347 346 346 346 346 346 346 346 346 346 345 344 345 345 345 346 346 347 347 348 349 350 349 350 350 350 350 350 350 351 350 350 349 348 349 350 349 349 349 350 349 348 347 348 348 349 349 349 348 347 347 347 347 348 348 348 348 349 349 348 347 346 346 346 344
334 334 335 335 335 335 335 335 336 337 338 339 340 341 342 343 344 345 346 346 346 346 346 346 345 345 345 346 347 346 345 345 344 344 345 345 346 346 346 347 347 347 348 348 348 348 348 348 349 349 349 349 348 349 350 350 349 348 349 348 349 348 348 348 349 349 349 349 348 348 348 348 348 348 349 348 349 349 348 347 346 345 343 342 340
334 334 334 335 335 334 334 334 335 336 337 338 340 340 341 342 344 345 345 344 345 346 348 347 346 345 345 346 346 346 345 345 345 346 346 346 346 346 347 347 346 346 346 346 346 347 347 347 348 348 348 348 348 349 349 349 348 349 348 348 349 349 348 348 349 349 349 349 349 348 347 348 349 349 348 348 347 347 346 344 342 340 338 337 335
333 333 334 334 334 334 333 333 334 335 337 339 339 341 342 343 344 345 345 344 344 345 346 347 346 345 344 344 345 345 345 345 346 347 347 347 347 347 347 347 346 346 346 346 346 346 346 347 348 348 348 349 349 349 349 349 349 349 348 348 348 349 348 348 348 349 349 349 348 346 345 347 349 349 347 346 345 344 342 340 337 336 336 336 336
333 334 334 334 334 334 333 333 333 334 335 338 339 339 341 343 344 345 344 344 345 344 345 345 345 344 344 344 345 345 345 346 347 347 347 346 347 347 346 346 346 346 346 346 346 346 346 347 348 348 349 349 349 349 348 349 349 349 348 348 348 348 349 349 349 349 349 349 347 345 344 345 347 348 346 345 344 343 340 338 337 338 339 340 340
334 334 334 334 334 333 333 333 332 332 334 336 338 339 340 341 343 344 345 345 344 344 343 344 344 343 343 343 344 345 346 347 347 348 347 347 347 346 345 344 345 346 347 346 345 345 346 346 347 349 350 349 349 349 348 349 348 348 348 348 349 349 349 349 349 349 348 347 346 345 344 343 343 345 346 344 343 341 339 337 338 339 341 341 341
333 334 334 334 334 333 333 333 333 332 334 336 338 339 340 341 342 343 344 345 344 342 342 343 342 342 343 343 344 345 346 347 347 347 347 347 347 347 345 343 343 344 346 348 347 347 347 348 349 349 349 349 349 349 348 348 348 349 349 349 349 349 348 348 348 349 348 347 346 346 345 343 342 343 343 342 341 340 339 338 339 340 341 341 341
333 333 333 334 334 333 333 334 335 334 334 336 338 339 340 341 342 343 344 345 345 343 342 342 341 342 342 344 345 345 346 346 346 346 347 346 346 346 346 345 344 343 345 347 348 348 348 348 348 348 349 349 349 349 349 349 348 348 348 348 348 348 347 347 347 346 346 345 346 346 346 343 342 341 341 341 340 340 339 339 341 342 341 341 341
332 332 333 333 333 333 333 334 336 334 332 334 336 338 339 340 342 342 342 342 343 343 342 342 341 340 341 343 344 345 345 345 344 344 345 345 344 345 345 346 346 345 345 346 347 347 348 347 347 348 348 349 349 349 348 347 347 347 347 346 345 344 343 343 343 342 342 342 343 344 345 344 342 342 341 341 340 340 340 340 341 341 341 340 339
332 332 333 333 333 333 334 335 336 334 330 331 333 334 336 338 340 342 342 341 341 342 343 343 342 341 341 343 344 345 345 344 342 341 342 343 343 343 343 345 346 347 347 346 346 346 347 346 346 347 348 348 347 346 346 345 345 344 342 339 336 334 333 335 336 337 338 340 341 343 343 342 342 341 341 341 340 340 341 341 340 340 339 338 338
331 331 332 333 333 333 333 334 335 333 330 329 331 333 335 337 339 342 343 342 341 342 343 343 343 343 343 343 344 344 345 344 342 339 339 340 341 340 341 342 344 346 347 346 345 344 344 345 345 346 345 345 345 345 343 342 339 336 332 329 327 327 329 333 335 336 338 339 340 341 341 340 340 339 340 340 340 340 340 339 338 338 337 337 337
330 330 331 332 332 332 332 333 334 333 331 329 331 333 335 336 338 340 341 342 342 342 343 343 343 344 344 344 344 344 344 343 342 340 339 339 338 338 338 339 342 344 345 345 345 343 343 344 345 345 345 344 344 342 338 334 330 327 326 326 326 328 331 334 335 337 337 338 338 339 339 339 338 339 340 340 339 337 336 336 337 337 337 337 336
331 330 331 331 332 332 332 332 333 333 331 329 330 334 336 337 337 338 340 341 342 343 344 343 343 344 344 343 343 343 342 342 342 342 342 340 337 336 337 339 341 342 342 342 343 343 342 342 342 343 342 340 338 334 331 329 327 327 328 329 329 330 331 333 334 335 336 337 338 339 339 339 338 339 340 339 336 335 335 336 337 336 336 336 335
331 331 331 330 331 331 332 332 333 332 331 331 332 334 336 337 338 338 339 341 342 342 343 343 342 343 344 343 344 343 342 342 343 344 344 342 339 336 337 338 339 340 340 340 341 340 340 338 337 336 335 333 331 330 329 330 330 331 332 332 331 331 332 333 333 333 333 334 335 336 337 338 339 339 339 337 335 334 335 335 335 334 334 333 333
330 331 331 331 331 332 332 333 333 332 332 332 333 334 335 336 337 339 340 341 342 343 343 343 342 344 344 344 344 343 342 342 343 343 345 343 339 337 336 336 337 338 337 337 337 336 336 335 334 334 334 333 332 332 333 333 333 332 333 332 332 332 333 332 332 332 333 333 332 333 334 336 337 337 336 335 333 333 333 333 333 334 334 332 330
331 331 332 332 332 333 333 333 333 333 333 333 334 335 336 336 337 338 340 341 342 343 343 342 343 345 345 343 342 342 343 343 343 343 344 343 340 338 335 334 336 335 334 334 335 335 335 336 337 337 337 337 336 336 336 336 336 335 334 333 333 334 333 333 333 333 334 334 334 333 334 334 333 332 332 332 332 332 332 331 332 332 331 330 330
332 332 332 332 333 333 333 333 333 333 333 333 335 335 336 336 336 337 339 341 342 342 342 342 344 345 344 343 343 343 344 345 343 343 343 341 339 338 335 333 334 333 332 333 336 336 337 337 338 338 338 338 338 338 338 338 338 338 337 336 336 337 336 335 335 335 334 334 334 334 335 334 334 333 333 333 333 334 334 333 331 330 329 330 332
332 331 332 332 332 332 332 333 333 332 331 332 333 334 334 336 336 337 339 341 342 343 343 342 343 344 343 344 345 344 345 345 343 342 342 340 339 338 335 332 333 333 332 333 336 337 337 338 338 338 339 340 339 338 338 338 338 338 338 337 337 337 338 337 337 337 336 336 335 335 334 335 335 336 335 335 335 335 334 333 332 331 330 332 332
331 331 331 332 332 332 332 333 333 332 330 330 330 332 333 335 336 338 339 340 342 343 342 341 342 342 343 343 342 342 342 341 339 339 340 339 338 338 334 330 331 332 332 332 334 336 337 338 339 339 340 341 340 339 338 338 338 338 338 337 337 338 338 338 338 338 337 337 336 335 334 334 335 335 335 335 335 335 335 334 333 333 333 333 332
331 331 331 332 332 333 333 333 332 331 330 330 330 332 333 335 336 338 339 341 342 342 342 342 341 340 340 338 336 335 334 332 334 338 339 338 338 335 331 327 328 331 331 330 332 335 338 338 339 340 340 341 341 340 339 339 339 338 338 338 338 339 339 338 338 338 338 338 338 336 334 333 334 335 335 335 335 335 336 335 334 334 333 333 332
331 331 331 331 332 333 333 332 331 331 330 330 331 332 334 334 336 337 339 340 341 341 341 341 341 340 339 337 335 333 328 326 331 336 337 337 336 331 327 325 326 328 327 328 331 335 337 338 339 340 341 340 340 339 338 338 339 339 338 338 339 339 339 338 339 339 338 338 338 336 335 334 335 335 336 336 335 336 336 336 335 334 333 333 333
331 331 331 331 332 333 333 332 331 330 330 331 332 332 333 333 334 336 338 340 341 341 341 341 341 340 340 339 338 335 330 327 328 332 334 334 332 328 324 325 328 329 330 331 333 336 337 337 339 341 340 340 340 339 338 338 338 338 339 339 339 339 338 338 339 339 338 338 339 338 336 336 335 335 336 336 335 336 335 336 336 334 333 333 333
331 331 331 331 332 332 333 332 331 330 330 331 331 332 332 333 334 336 338 339 340 341 341 340 341 341 341 341 340 338 333 329 328 329 331 330 329 325 324 326 330 334 337 338 339 339 337 336 339 341 339 340 340 340 339 338 337 338 338 339 339 339 338 337 337 337 337 337 337 337 337 336 336 335 335 334 334 335 336 336 336 336 334 333 333
332 331 331 331 332 332 332 332 331 330 329 330 330 331 333 334 335 337 338 339 340 341 341 340 341 341 342 342 341 340 338 336 334 333 332 331 329 329 329 329 329 334 339 341 341 340 338 337 338 339 338 339 340 340 339 339 338 338 338 339 338 338 338 337 335 335 336 336 336 336 337 337 336 336 335 334 333 334 335 335 335 336 335 334 333
332 332 332 332 332 332 332 332 331 330 330 331 333 333 334 336 337 338 339 339 340 340 341 340 341 341 341 341 341 340 339 340 340 339 338 336 335 335 335 332 329 331 337 340 340 340 340 340 340 339 339 340 340 340 339 339 338 337 338 338 337 337 337 337 337 337 336 337 337 337 338 338 338 337 337 336 335 335 334 334 334 335 335 335 334
331 331 332 332 332 333 332 332 332 330 331 333 336 335 335 337 338 338 338 339 339 340 341 341 341 341 340 340 340 340 340 341 342 341 341 340 339 339 338 335 331 332 336 338 338 340 341 342 342 341 340 340 340 340 340 339 337 336 337 337 337 336 336 337 338 338 338 338 338 338 338 337 338 338 337 337 337 336 335 335 335 335 335 334 334
331 331 331 332 333 333 333 333 333 332 332 334 336 336 335 335 335 335 336 337 338 339 340 340 339 339 339 340 340 341 342 342 343 342 342 342 342 341 341 339 337 335 335 336 338 340 341 342 341 341 341 341 340 340 340 339 338 337 337 337 336 336 336 337 337 338 338 338 338 338 338 338 338 337 337 337 337 337 337 336 335 335 335 335 334
330 330 331 332 333 333 333 333 333 333 333 334 335 334 334 334 334 334 334 335 336 337 338 338 337 338 339 340 340 341 342 341 341 342 342 342 342 341 340 340 340 338 336 337 339 340 341 340 340 340 340 340 340 340 340 340 340 339 339 339 338 338 338 337 337 337 338 338 338 338 337 337 337 337 337 337 337 337 337 337 336 336 335 335 334
330 330 331 331 332 333 332 333 333 333 333 333 333 333 334 334 334 335 336 337 338 338 338 338 339 339 340 340 341 341 341 340 340 341 342 341 341 340 339 339 339 339 338 339 340 340 339 339 339 340 340 340 340 340 341 341 340 340 341 341 341 340 340 340 340 340 340 340 340 340 339 338 338 337 336 336 336 335 336 336 336 336 335 334 333
329 331 330 331 332 333 333 333 333 333 333 332 332 333 333 334 335 336 337 338 339 339 339 339 340 339 339 340 341 341 340 339 339 340 341 341 341 340 338 338 338 338 339 340 340 339 339 339 339 340 340 341 340 341 340 341 341 341 341 341 341 341 341 340 340 340 340 339 339 339 339 339 338 338 337 336 335 335 334 334 334 333 333 333 332
328 330 330 330 331 332 332 332 332 332 333 332 332 333 334 335 335 336 336 337 337 338 339 339 339 338 338 339 339 340 339 338 338 340 340 340 340 339 338 338 338 338 339 339 339 339 339 340 340 340 340 340 340 340 340 340 340 340 340 340 340 339 339 338 337 337 337 337 337 337 338 338 338 338 336 335 334 334 333 332 331 331 331 331 331
327 329 330 330 331 332 332 332 332 333 333 334 334 334 334 335 335 336 336 336 336 337 339 339 339 338 338 338 338 338 339 339 339 339 340 340 340 340 339 338 338 339 339 339 339 340 340 340 340 340 340 340 340 340 339 339 339 339 339 339 338 337 336 335 334 334 334 334 335 335 336 337 337 336 336 335 334 333 332 331 331 331 331 330 329
327 328 330 330 331 332 332 332 332 333 333 334 334 334 334 334 334 335 335 335 335 337 338 339 338 338 338 338 338 338 339 339 339 339 339 339 339 339 339 339 339 339 340 339 340 340 340 339 339 339 339 338 338 337 337 337 337 337 337 336 335 335 334 333 332 332 332 333 333 334 334 335 335 334 334 334 333 332 332 331 331 330 329 329 327
327 328 329 329 330 331 332 332 332 332 333 333 333 333 333 333 334 335 335 335 335 336 337 338 338 337 337 337 338 338 338 338 338 338 338 338 338 338 338 338 338 339 339 338 338 338 338 338 337 337 337 336 336 336 335 335 335 334 334 334 333 333 333 332 331 331 331 332 332 331 331 330 330 329 329 330 330 330 330 330 329 329 328 326 324
Wind_Speed
14 13 12 12 13 14 15 13 10 10 14 17 18 19 19 21 24 25 27 29 30 30 29 29 29 29 29 29 29 28 28 29 30 29 28 28 27 27 27 28 28 27 25 25 25 26 25 23 21 20 18 18 18 17 16 17 20 21 20 20 19 19 17 17 18 18 15 14 13 12 12 13 14 14 13 13 13 14 14 15 16 17 17 16 16
15 14 12 11 11 11 13 14 12 11 13 16 17 17 18 20 22 24 26 28 30 31 30 28 27 27 27 29 29 29 29 31 32 32 31 29 28 26 26 27 27 25 24 23 23 23 23 23 22 20 19 19 19 18 17 16 18 20 20 21 21 20 18 17 17 18 17 15 13 13 12 13 14 13 14 14 14 14 15 15 16 17 18 19 18
17 17 15 14 12 10 10 12 13 12 14 16 17 17 18 20 22 23 24 25 28 31 30 29 28 28 29 30 30 30 31 31 30 32 32 31 29 28 27 27 26 25 24 23 22 21 21 22 22 20 19 19 19 18 18 18 19 20 20 20 20 20 19 18 17 18 17 16 15 14 13 13 14 13 14 15 15 15 16 16 17 18 19 20 20
18 18 18 17 15 13 10 10 12 14 15 17 18 18 19 20 22 23 22 22 25 28 30 30 29 29 30 31 31 31 32 32 30 31 33 33 31 30 29 28 27 26 25 23 22 21 21 21 20 19 18 19 20 19 18 19 20 21 21 21 21 20 20 19 17 17 18 18 17 15 13 13 13 14 15 17 16 16 17 17 18 19 19 20 20
19 19 19 19 19 16 13 11 13 14 15 17 18 19 20 21 22 22 22 22 24 26 28 30 30 30 30 30 31 31 31 32 32 31 32 34 32 30 29 28 27 27 26 25 23 22 21 21 20 19 20 21 21 19 19 20 20 20 21 22 21 20 20 20 19 18 19 19 17 15 14 14 14 15 16 17 17 17 18 18 18 19 19 20 21
21 21 20 20 20 19 17 14 13 14 15 16 18 19 20 21 22 22 22 23 24 26 28 29 30 30 30 29 30 31 31 32 33 31 31 32 32 31 30 28 27 27 27 27 26 24 23 22 21 21 21 21 21 20 19 20 20 20 21 22 22 21 21 21 20 18 19 19 18 16 15 15 15 16 16 16 17 18 18 19 19 19 19 19 20
22 22 21 21 21 20 18 16 14 14 15 16 17 19 21 22 22 22 22 23 24 27 29 30 30 30 31 30 30 30 29 30 33 32 30 30 30 30 30 28 27 27 28 28 28 27 26 24 23 22 22 21 20 20 20 21 21 21 21 22 23 22 21 21 20 20 20 20 19 17 16 16 16 16 16 16 18 19 19 19 19 18 18 18 18
22 22 22 21 20 21 19 16 14 13 15 16 17 18 20 21 22 22 23 23 23 25 27 30 31 31 31 31 31 30 28 28 30 31 30 29 29 29 29 29 29 29 29 30 29 29 28 27 25 23 22 21 20 20 20 21 22 23 23 22 23 23 23 22 22 21 21 20 20 18 17 17 17 16 16 17 18 18 17 17 17 16 16 17 18
22 22 22 20 19 20 19 16 14 13 14 15 17 18 19 20 22 23 23 24 23 24 25 27 30 31 32 32 32 32 30 29 30 30 29 28 30 29 29 30 32 31 30 31 31 31 30 29 27 25 23 22 21 21 21 22 23 24 23 23 24 24 25 24 24 23 21 21 21 20 19 19 18 17 16 17 16 15 14 15 16 15 15 16 18
21 22 22 19 18 19 19 17 14 13 13 14 15 16 17 18 20 23 24 24 24 24 24 25 27 29 31 31 32 33 33 32 31 30 29 29 30 30 30 31 33 33 33 32 32 32 31 30 29 27 25 24 23 23 23 23 24 24 25 25 26 26 26 26 25 23 22 22 22 22 21 21 18 16 16 16 15 15 14 15 15 14 14 15 16
21 22 22 19 18 18 18 17 15 14 13 13 14 15 16 16 18 21 24 25 25 25 25 25 25 27 29 29 30 32 32 31 30 29 30 31 32 33 33 33 33 33 34 34 34 34 33 32 31 29 28 27 26 25 25 26 26 25 25 26 26 26 27 26 25 24 23 23 23 22 22 21 18 16 15 15 14 14 14 14 14 13 13 14 15
19 21 22 20 18 18 18 17 16 15 14 13 13 14 15 16 17 18 20 21 22 22 24 26 26 26 27 28 29 29 29 29 29 29 30 31 33 34 34 34 34 35 35 35 35 35 34 33 31 30 29 29 28 27 27 28 27 25 24 24 24 25 27 26 25 25 25 24 23 22 22 20 17 16 15 15 14 14 13 13 12 12 12 13 13
18 20 22 20 18 18 18 18 17 16 17 16 15 14 14 15 16 16 16 16 18 20 22 24 25 25 26 26 27 27 28 27 27 28 29 31 33 35 34 34 36 37 38 38 36 35 35 34 33 31 30 28 28 28 27 27 27 25 23 23 23 24 25 26 26 26 26 25 23 22 20 19 17 15 14 14 14 14 14 12 11 11 11 11 11
17 20 21 19 17 17 18 18 17 17 18 18 17 16 15 16 16 16 16 15 17 19 20 21 21 21 22 23 24 25 26 26 26 27 28 29 32 34 34 35 35 36 38 39 39 38 36 35 34 33 32 29 28 27 27 26 26 25 24 24 24 24 24 24 26 26 27 26 24 21 19 18 17 14 13 14 14 13 12 11 11 12 12 11 11
18 20 20 18 17 17 18 18 17 16 16 16 16 16 17 17 16 16 16 16 16 16 17 17 17 17 17 18 20 22 23 24 25 26 27 28 30 32 33 34 35 35 36 37 39 40 38 37 35 34 32 30 27 26 26 25 24 24 24 24 25 24 23 23 24 26 25 24 22 20 18 17 16 14 13 14 14 12 12 12 12 13 13 13 12
19 19 18 17 17 17 19 19 18 17 17 16 15 15 16 17 16 15 14 14 15 15 15 15 16 16 16 17 18 19 19 19 21 23 25 26 27 30 31 32 33 34 33 34 36 37 37 37 35 33 32 30 28 26 25 24 23 23 24 24 23 23 22 22 23 24 23 21 20 19 18 16 15 14 14 14 14 13 13 13 13 13 13 13 12
17 17 18 18 17 18 20 20 20 19 19 18 16 14 15 16 15 14 14 14 14 14 15 14 14 14 15 17 17 17 15 15 17 18 20 23 25 27 29 31 33 33 32 32 32 33 33 33 32 32 32 31 28 26 25 24 24 23 24 23 22 22 23 23 23 22 20 19 18 17 16 14 14 14 14 15 15 15 15 13 13 12 13 13 14
17 18 18 19 18 19 20 20 20 19 19 18 17 15 14 15 14 14 14 14 13 13 13 13 13 14 15 15 15 15 14 14 15 17 17 19 21 23 26 28 30 31 31 30 30 30 30 30 30 31 30 29 26 25 25 25 25 24 23 22 22 22 23 23 22 20 18 17 16 15 15 14 14 15 15 15 15 15 15 14 13 14 15 16 17
18 19 19 19 19 19 19 19 18 19 18 18 17 16 15 15 14 13 13 14 13 12 13 13 14 14 15 15 15 15 15 15 15 17 17 18 20 22 23 25 27 28 29 28 28 29 29 29 29 28 28 27 26 26 26 26 25 24 23 22 22 22 21 20 18 16 16 15 15 14 14 14 14 14 14 15 15 14 14 13 14 16 17 18 19
19 19 19 19 19 19 18 17 17 18 18 17 16 15 15 15 14 14 14 15 15 15 15 15 14 14 15 16 17 16 17 17 16 16 17 19 20 21 22 24 26 27 27 27 28 27 27 28 27 26 26 26 26 27 27 25 24 23 22 22 22 20 19 17 16 15 16 15 14 13 13 13 13 14 13 13 12 12 12 13 14 16 17 18 18
20 20 19 19 18 18 17 16 16 16 17 16 16 15 14 13 13 14 15 16 16 17 17 16 15 14 15 17 18 18 18 18 16 15 16 17 18 19 21 22 23 25 26 27 27 27 27 27 26 26 25 25 25 26 25 24 24 23 21 21 20 19 17 16 16 16 17 15 14 14 13 13 13 13 12 11 11 11 12 13 13 13 13 12 12
21 21 20 19 17 17 15 14 14 15 15 16 16 15 14 13 12 12 13 14 16 18 18 16 15 14 14 16 18 18 18 17 14 13 14 14 15 16 16 16 17 21 24 25 26 27 28 27 26 26 26 24 23 22 22 22 23 22 20 19 19 18 17 16 16 17 16 15 15 14 13 13 13 13 12 12 13 13 13 13 12 9 8 7 8
19 20 20 19 17 16 14 13 13 14 14 15 16 15 14 12 12 11 12 13 15 16 16 15 15 15 14 15 16 17 16 14 12 12 12 12 13 13 12 9 9 13 20 24 25 25 26 25 25 25 25 23 22 20 19 20 20 18 17 17 17 16 16 16 16 16 16 16 16 15 13 13 14 15 15 15 14 13 13 13 11 9 9 9 9
18 19 19 19 18 16 13 11 12 13 13 14 15 15 13 12 11 11 12 13 14 15 14 15 15 14 14 15 15 16 14 11 10 10 10 10 11 11 11 9 5 6 12 18 21 21 21 21 21 20 21 21 20 19 18 18 17 16 15 15 15 16 16 16 16 16 17 17 17 16 15 15 15 16 16 15 14 13 13 12 11 10 10 10 9
18 18 18 17 17 15 12 10 10 11 13 13 13 12 12 11 10 10 11 11 12 13 12 12 13 13 14 14 15 16 14 9 7 8 8 8 8 7 7 8 6 5 6 9 11 14 16 15 14 15 17 18 19 19 18 17 16 15 15 15 16 17 17 18 18 19 20 19 19 18 17 16 16 15 14 14 14 14 14 12 11 11 11 10 10
18 18 17 16 15 14 12 11 10 11 12 13 12 11 12 11 10 10 10 10 11 11 11 11 12 13 14 15 15 16 13 7 4 7 8 8 7 5 5 5 5 6 6 6 7 9 11 12 13 14 16 17 17 17 17 16 15 15 16 16 18 19 20 21 21 22 21 20 20 19 17 16 15 15 15 15 16 15 13 11 11 11 11 10 10
17 17 16 15 13 13 12 11 10 10 12 13 12 11 12 11 10 9 9 10 10 10 10 11 12 14 15 14 13 14 11 5 2 5 7 8 7 5 4 5 4 4 4 5 6 9 11 13 14 15 15 14 13 13 13 12 12 14 15 16 17 18 19 20 19 19 20 19 19 19 18 17 16 16 16 16 15 13 11 10 10 10 10 10 10
16 17 16 14 11 11 12 12 10 10 12 12 11 11 10 11 10 9 8 8 9 9 9 10 11 13 13 12 12 12 11 5 2 5 7 7 7 6 5 5 5 5 4 4 6 9 11 13 13 12 11 10 9 9 10 10 11 13 13 13 13 13 12 13 13 14 15 16 17 17 17 16 16 15 14 13 11 10 10 10 10 9 9 10 9
16 16 15 13 10 9 11 11 11 11 13 13 12 11 10 11 10 9 8 8 8 9 9 9 10 11 11 11 11 9 7 3 1 4 6 6 4 4 4 4 5 6 6 6 6 6 7 7 8 8 8 7 8 9 11 11 10 9 9 9 9 10 10 11 11 11 12 13 14 15 15 14 13 12 11 9 8 9 9 9 9 8 9 9 9
16 15 13 12 11 9 10 10 10 11 13 14 13 11 10 10 9 8 9 9 10 11 11 10 9 9 9 10 9 6 4 2 2 1 4 5 3 2 3 5 6 7 8 8 7 7 6 6 7 8 8 9 9 9 8 7 6 6 7 8 9 9 10 10 9 9 10 11 12 13 13 13 12 11 9 8 7 7 7 6 6 7 8 9 9
17 15 13 12 11 10 9 9 8 9 11 13 13 12 11 10 9 8 8 9 10 12 12 10 9 9 8 9 9 7 5 4 3 4 5 5 3 2 2 6 8 8 8 8 8 8 8 8 8 8 7 7 6 6 6 5 6 7 8 9 9 9 9 8 8 7 7 9 12 14 14 14 13 11 8 7 6 4 4 5 5 5 6 7 8
16 15 13 11 10 9 9 8 6 6 8 9 11 12 12 11 10 9 8 8 9 11 11 11 11 10 9 10 11 10 7 4 4 5 7 7 4 2 3 5 8 8 8 8 7 7 6 5 6 6 6 7 7 8 8 8 8 8 8 8 8 9 9 8 8 7 5 4 6 8 10 12 12 10 8 6 4 2 2 3 3 4 5 5 5
14 14 12 11 9 8 9 8 6 6 7 8 8 10 11 12 11 9 9 9 10 12 12 12 12 12 11 12 13 12 8 5 4 5 8 9 6 3 3 5 8 7 6 6 8 9 11 12 11 10 9 9 10 10 9 9 9 9 8 8 8 8 8 8 8 8 6 5 4 4 4 5 6 5 5 4 2 1 1 2 3 3 4 3 2
13 13 12 10 9 8 9 9 8 8 8 8 7 8 10 11 11 9 8 9 11 12 13 14 14 14 13 14 14 11 8 5 4 6 9 10 7 4 3 5 7 6 5 9 13 14 14 14 11 8 7 7 8 9 9 8 8 7 7 7 7 7 6 6 7 7 7 6 6 5 5 5 5 4 4 3 2 0 1 2 2 3 3 3 2
12 12 11 10 10 9 8 7 7 9 10 9 9 9 9 10 11 11 9 9 11 12 13 14 15 16 14 13 12 10 7 6 5 6 10 10 8 5 3 5 6 5 6 11 14 14 13 12 10 8 6 5 6 8 9 9 8 6 6 7 7 7 6 6 5 5 6 5 6 6 5 5 4 3 2 3 3 2 1 2 2 2 2 3 3
12 12 12 11 11 10 8 6 6 8 9 9 10 10 11 11 11 12 10 10 11 13 13 12 14 15 14 12 10 9 9 8 7 9 11 10 7 4 3 3 5 5 5 9 13 14 12 11 9 7 5 4 4 5 6 6 6 5 6 7 6 5 6 6 5 6 6 5 5 5 6 5 5 4 4 5 5 4 2 1 2 2 3 4 4
13 13 13 12 11 11 9 8 8 9 9 9 9 10 11 11 11 12 11 11 11 13 14 12 12 13 12 10 9 9 9 10 11 12 12 10 7 4 3 3 5 5 5 7 11 13 12 11 9 7 5 5 4 4 4 4 4 5 6 6 4 2 4 5 6 6 6 5 4 4 4 5 5 5 6 7 7 6 5 4 5 5 5 6 6
13 13 13 12 12 11 10 10 10 10 10 9 9 9 10 11 12 12 12 12 12 12 13 13 13 12 11 10 9 9 10 11 13 14 12 10 7 6 7 7 8 8 8 9 11 12 12 11 10 9 8 8 8 8 7 7 6 7 8 8 6 3 3 4 6 7 7 6 5 4 3 3 5 6 8 8 8 7 7 7 7 7 8 8 8
13 12 12 12 11 10 9 9 10 10 10 10 9 9 10 11 11 11 11 13 13 12 12 14 15 14 11 10 10 9 9 10 12 12 12 10 9 10 11 11 12 12 12 12 12 13 12 12 13 12 12 11 11 10 9 8 8 9 9 8 6 4 3 3 3 4 5 6 6 5 4 5 6 8 10 10 9 8 7 8 8 9 9 10 10
14 12 11 10 10 10 9 9 9 10 10 10 10 10 10 10 10 10 10 12 14 13 13 14 15 14 12 10 9 9 10 11 11 12 11 11 12 13 13 12 13 13 13 12 12 12 13 15 16 15 13 12 12 11 9 8 9 9 8 6 5 4 3 3 4 4 5 5 5 5 5 5 6 8 10 11 11 10 9 9 9 9 10 11 12
14 12 10 9 9 9 9 10 10 10 9 9 10 11 10 9 9 8 9 11 13 14 14 14 13 13 12 10 9 9 10 11 12 12 12 12 12 12 12 12 13 14 13 12 11 12 14 15 16 15 14 13 12 11 9 7 8 9 9 8 7 6 6 6 7 7 7 6 5 5 5 5 6 7 7 8 9 11 12 12 11 11 11 11 12
13 11 9 8 8 8 8 9 10 10 9 9 9 9 8 7 7 8 9 10 10 11 13 14 13 12 12 11 9 10 10 10 12 13 13 12 13 13 14 14 15 16 16 14 12 12 12 11 12 14 14 13 11 11 9 7 8 10 11 11 10 9 8 8 8 8 8 8 8 8 8 8 8 9 8 8 8 10 11 12 13 13 12 12 12
11 11 8 8 8 8 8 9 9 9 8 8 6 4 4 5 7 8 9 9 8 9 9 11 11 9 9 10 10 11 12 13 13 14 15 14 14 14 14 14 14 15 16 15 13 11 9 8 8 10 12 12 13 13 11 9 9 11 12 12 11 11 10 10 9 9 10 10 11 11 12 12 12 12 12 12 12 12 12 12 13 14 15 14 14
9 11 9 7 8 8 8 8 8 8 7 6 4 3 3 5 6 6 6 7 9 9 6 5 7 7 8 10 12 13 13 12 11 12 14 14 13 13 12 12 12 13 14 14 13 11 9 8 8 8 9 11 14 15 14 13 12 12 12 12 12 12 12 12 11 11 12 13 14 14 14 14 15 15 15 15 15 16 17 17 17 17 17 17 16
8 11 8 6 7 8 8 6 6 6 7 6 5 4 4 5 6 6 4 5 7 8 5 6 8 9 9 11 14 14 13 12 10 10 10 10 11 12 13 12 12 13 13 14 14 13 10 8 8 8 10 12 14 14 14 14 14 14 13 12 12 13 13 13 14 14 15 16 17 17 17 17 17 16 16 17 17 18 19 20 20 20 20 20 19
5 7 7 6 6 7 7 7 6 6 6 6 5 4 2 4 5 4 2 4 6 8 8 9 9 8 9 12 13 13 11 10 10 11 10 9 10 11 13 14 13 13 14 15 15 12 8 6 6 7 10 12 13 12 11 10 11 12 12 11 12 12 12 13 14 15 15 15 16 17 18 18 17 16 16 16 17 18 18 18 19 21 21 21 21
5 5 6 6 6 5 6 7 6 6 5 4 4 3 1 1 2 2 2 4 6 8 9 10 9 10 11 13 13 13 11 10 11 11 11 11 12 13 14 15 14 13 13 14 12 10 8 7 6 7 8 9 8 7 6 6 6 7 8 8 8 8 8 9 10 11 12 12 13 14 15 15 15 15 14 14 14 15 15 14 13 14 15 16 15
5 3 4 7 6 4 4 5 5 4 3 3 2 2 2 1 1 2 3 6 7 8 9 9 9 10 12 13 14 13 10 10 11 11 12 12 13 12 13 14 14 12 11 11 10 8 7 7 7 7 7 6 6 5 5 4 4 5 5 6 6 7 7 8 9 11 11 12 13 13 12 12 11 11 12 13 13 12 12 10 10 10 11 11 11
4 2 3 5 5 4 3 3 2 2 2 1 1 3 3 2 1 3 4 6 8 9 10 11 11 11 13 15 16 15 13 12 13 14 14 13 12 11 10 11 12 12 12 11 10 9 8 8 7 6 5 5 5 5 5 5 5 6 7 7 8 9 10 11 12 12 13 13 13 12 12 11 9 9 10 13 14 13 11 10 10 10 9 8 8
3 2 4 5 5 3 2 2 1 1 2 2 2 3 3 3 3 4 5 6 7 8 10 12 13 13 15 17 18 17 16 15 16 15 14 12 12 11 11 11 11 12 13 12 11 11 10 8 7 6 5 4 3 4 5 6 7 8 9 10 11 12 12 12 12 12 11 11 11 9 9 9 8 6 6 8 8 8 7 6 6 6 5 4 4
1 1 3 5 4 2 1 1 1 2 3 3 3 4 4 5 6 6 5 5 6 7 10 13 15 16 17 18 18 17 16 16 15 16 16 15 14 13 12 11 12 12 13 13 13 12 11 9 8 6 5 4 4 5 6 7 8 9 10 11 12 12 11 11 10 9 8 6 5 4 3 3 2 2 3 4 4 3 3 3 3 3 2 1 0
Wind_Direction
0 355 345 329 317 312 306 297 282 260 249 244 242 243 244 241 238 238 239 237 237 239 241 241 240 242 246 247 246 245 243 242 244 247 247 247 245 243 244 246 249 251 251 249 247 248 250 251 252 255 260 265 269 271 265 254 247 245 244 247 248 247 246 247 255 263 263 257 257 259 261 258 252 252 253 249 245 246 248 250 254 256 255 257 255
357 347 340 329 316 309 302 295 285 264 252 250 250 248 244 239 237 238 239 238 235 234 238 241 242 244 248 249 247 246 244 244 247 247 244 244 245 246 247 248 249 250 250 247 244 244 247 249 252 255 257 261 266 267 266 258 250 246 246 249 250 248 247 249 256 263 262 259 259 258 259 260 258 254 253 253 252 252 254 255 259 261 261 261 261
354 349 342 333 322 308 294 289 284 271 257 252 252 252 247 240 237 238 242 243 236 231 233 238 241 243 246 247 246 243 242 246 252 249 243 243 246 246 247 248 249 250 250 249 245 243 246 249 250 251 253 257 262 263 261 257 252 250 250 253 255 254 252 253 255 260 262 263 261 256 256 258 257 255 254 254 253 253 256 258 259 261 260 261 262
344 348 346 339 329 314 296 282 276 272 265 259 255 252 248 244 241 241 242 243 239 234 232 234 238 239 241 243 243 243 242 245 251 251 245 245 246 245 247 250 250 252 252 252 250 247 247 248 248 248 250 253 258 258 255 253 252 253 253 255 259 259 258 256 256 261 265 265 261 255 255 257 256 254 254 254 254 255 257 258 258 259 259 259 260
335 339 341 340 334 321 305 286 272 267 267 265 262 257 250 246 245 243 240 240 242 239 236 235 236 237 239 241 242 244 245 244 246 248 247 247 247 245 249 252 251 253 254 255 254 251 249 247 246 248 249 252 255 256 253 251 253 255 255 255 259 262 263 260 259 262 263 262 260 257 257 258 257 256 255 256 256 256 257 258 258 259 260 259 258
335 335 336 337 337 329 314 295 277 268 264 262 260 258 255 252 249 247 244 243 244 244 240 237 236 237 239 240 240 243 247 247 247 245 246 249 250 247 248 250 251 253 255 256 257 257 254 251 250 251 252 253 256 259 257 254 254 255 255 256 260 265 268 263 256 254 257 257 258 258 260 261 260 257 256 257 257 257 257 257 258 260 261 260 258
336 336 336 336 336 333 322 304 285 272 266 263 259 255 254 254 252 248 245 244 244 243 241 237 236 236 237 237 238 240 245 248 248 246 246 249 248 243 243 247 249 251 253 255 257 259 258 257 257 257 255 254 258 261 261 260 259 258 257 257 260 264 266 262 252 248 251 254 255 258 260 262 261 258 256 256 256 256 257 258 259 260 261 263 261
337 336 337 337 335 335 328 313 295 278 267 264 264 259 251 250 251 249 245 245 245 244 242 240 238 237 237 238 238 239 240 242 244 247 250 248 242 237 237 243 248 249 250 253 256 258 260 260 261 260 256 253 258 263 265 264 263 262 260 258 259 262 263 260 254 250 252 255 255 256 257 258 258 256 255 255 255 257 260 261 261 259 259 262 262
339 338 337 337 335 335 333 320 304 291 279 272 271 269 259 251 251 250 247 245 246 247 246 243 240 239 238 238 239 240 240 239 239 243 248 246 241 237 236 242 248 249 248 251 255 257 259 260 260 260 258 257 261 266 266 265 264 263 260 257 258 259 260 258 254 251 252 255 254 253 253 255 254 254 256 258 261 264 263 260 259 259 260 261 259
337 338 337 336 334 334 335 327 312 300 293 284 278 277 272 263 259 258 255 251 249 248 248 245 242 241 241 240 240 241 241 240 239 241 244 242 240 239 236 238 244 248 249 251 254 256 259 260 261 261 261 262 265 267 265 264 264 262 259 258 257 256 256 254 251 250 251 253 254 253 253 255 254 256 262 265 264 262 257 255 257 258 260 261 260
333 335 335 335 332 332 335 332 320 307 298 291 286 282 277 272 267 264 262 260 256 253 251 249 245 242 243 243 242 242 242 242 241 243 244 242 239 237 236 237 239 243 247 250 253 255 257 259 261 261 262 264 266 267 266 265 265 264 262 262 261 259 256 252 250 250 250 250 253 254 252 253 254 258 264 263 258 255 253 255 258 257 258 262 264
328 329 331 333 331 329 331 331 325 315 306 298 292 288 281 275 269 266 264 263 262 259 256 254 250 247 246 245 244 245 245 246 245 245 245 242 239 237 238 239 239 240 244 247 251 254 256 258 259 260 261 263 266 267 267 266 266 266 265 264 263 261 258 254 251 250 249 249 253 255 253 254 256 259 261 259 255 254 255 257 259 259 260 263 266
324 324 326 328 329 329 329 330 328 321 314 304 294 293 292 285 279 274 268 265 264 261 258 255 253 251 250 249 248 247 246 247 248 247 246 243 240 239 239 241 242 243 244 244 245 248 251 255 258 259 259 261 264 266 267 266 265 265 265 265 263 260 257 254 248 247 249 250 252 255 255 256 259 261 260 259 257 254 253 255 258 259 258 260 264
320 320 321 323 327 328 329 330 329 326 321 313 304 301 300 296 291 286 279 271 265 262 259 257 255 254 253 251 249 247 245 245 246 246 245 242 241 242 242 242 244 245 246 245 243 242 243 247 252 256 257 259 261 263 264 264 263 263 264 266 266 263 259 254 248 247 248 249 248 251 253 254 258 260 258 259 259 255 251 252 255 255 252 253 256
314 315 317 319 323 328 328 327 327 327 325 319 311 305 300 293 289 290 288 281 274 267 263 261 261 261 261 258 254 250 247 247 247 246 245 243 243 243 243 243 244 245 246 245 242 241 243 244 246 250 254 255 256 257 260 260 258 257 260 262 265 266 262 258 255 252 250 248 247 250 252 252 254 254 253 255 256 252 249 249 250 253 254 255 255
310 311 314 316 320 325 325 325 327 327 325 320 311 307 301 291 282 282 283 280 277 275 271 268 269 268 266 264 261 257 253 250 247 244 243 243 243 244 244 245 245 246 246 245 243 244 246 246 244 246 250 251 251 252 255 255 252 251 255 258 259 259 259 258 258 255 252 248 247 249 249 248 247 245 244 247 248 247 249 249 249 254 258 256 250
312 310 312 315 318 319 320 324 328 328 328 325 316 308 302 294 286 283 281 276 273 274 272 271 272 269 263 258 256 255 254 250 246 242 240 239 241 243 245 246 247 248 247 246 246 246 246 246 244 245 247 248 248 248 248 249 249 250 254 255 252 252 254 254 251 250 249 246 244 245 245 242 240 239 239 240 243 244 244 245 248 253 254 251 249
314 313 313 314 315 315 317 321 327 328 328 327 322 313 303 294 286 285 284 277 269 265 262 262 265 265 261 258 258 258 256 251 249 248 245 242 241 242 243 245 246 247 246 246 246 246 246 246 245 245 246 246 243 241 242 245 249 252 252 251 249 252 254 250 245 244 243 241 240 242 242 239 238 237 237 237 238 240 241 246 253 258 259 259 262
312 312 312 312 312 312 314 319 324 326 325 325 324 318 308 295 284 280 280 276 270 266 264 262 262 263 263 263 263 261 258 254 254 256 255 253 249 247 245 245 246 245 244 244 244 244 244 245 244 243 243 242 238 236 239 243 247 249 249 249 250 250 248 244 242 244 244 242 242 242 243 244 242 239 237 236 237 241 247 255 262 265 266 267 267
311 312 311 311 309 309 312 316 322 324 322 321 321 317 309 297 285 277 274 273 270 269 268 267 266 266 266 266 263 261 261 261 260 260 260 258 253 248 246 246 247 246 245 243 242 241 240 241 241 242 242 239 236 236 238 241 243 244 244 247 248 245 241 240 241 242 241 239 238 241 242 243 241 238 237 238 242 250 257 263 268 270 270 269 268
312 312 311 311 310 309 309 313 318 323 322 320 319 317 309 297 284 275 271 271 269 266 266 267 268 267 266 265 261 260 262 261 259 258 260 257 250 244 244 246 247 247 245 243 241 239 237 237 237 238 239 237 235 235 236 237 238 238 240 245 245 240 237 237 238 238 236 233 236 242 241 236 235 236 236 241 252 260 266 271 274 274 272 270 269
311 311 311 313 315 313 311 309 313 320 322 320 319 318 311 296 282 276 275 273 268 264 266 268 266 263 263 263 262 260 259 257 257 258 258 253 244 239 242 249 253 250 246 242 238 236 235 235 234 234 235 233 230 230 232 232 232 232 235 239 238 235 232 230 232 236 240 241 242 245 242 237 238 239 237 242 252 260 267 274 274 266 262 266 271
313 312 313 315 318 317 313 307 308 314 320 323 320 315 308 296 284 279 278 274 265 260 263 268 266 262 260 260 261 259 255 255 259 260 257 252 242 233 235 248 259 252 244 239 236 234 233 233 233 230 227 224 222 223 225 226 226 227 229 230 229 230 231 229 230 237 244 246 248 249 251 251 246 240 239 244 251 259 268 272 267 259 261 270 274
314 315 317 318 318 317 313 308 307 312 321 327 323 316 307 296 284 276 275 275 270 264 263 266 266 263 260 259 259 258 254 254 258 259 258 254 241 228 229 239 251 250 241 236 231 225 224 227 226 219 215 215 217 217 217 219 220 221 222 222 224 228 233 235 237 242 245 247 249 253 259 260 251 244 247 251 254 262 270 267 260 261 270 276 277
314 317 320 320 317 314 310 308 310 318 326 329 327 323 316 302 285 273 270 273 277 275 270 267 266 264 261 260 260 257 253 249 252 256 260 259 246 230 230 237 239 237 232 226 216 209 210 217 214 206 209 213 211 211 213 214 218 220 222 226 231 235 238 240 242 246 249 250 251 254 257 259 254 251 253 255 258 267 271 265 260 267 275 279 281
315 318 320 320 316 311 304 302 308 322 329 328 325 326 322 311 292 275 266 264 272 278 276 269 265 264 265 264 261 257 254 253 263 265 264 263 257 242 231 230 231 229 220 214 213 209 210 215 210 203 205 204 200 205 211 211 214 222 229 236 241 244 244 244 243 244 245 247 249 251 253 255 254 253 253 256 262 269 269 264 266 275 279 280 280
316 318 319 320 318 310 299 295 303 317 324 325 323 322 319 315 305 287 270 262 266 275 279 270 261 262 266 264 256 253 252 253 317 310 289 276 267 257 239 224 218 223 222 218 216 205 195 191 186 184 188 191 193 206 216 218 226 238 245 249 249 248 244 241 239 236 235 237 242 247 250 251 251 251 254 258 263 264 263 264 272 279 279 275 274
319 319 319 318 317 308 296 294 300 308 314 318 319 317 314 313 311 301 281 266 262 266 272 270 262 262 265 258 250 254 261 268 355 5 339 303 277 268 258 237 225 226 224 204 188 179 172 168 165 170 183 193 203 224 244 253 255 255 254 249 242 235 228 222 220 220 223 227 233 239 243 244 244 248 252 256 258 260 263 267 269 270 270 269 269
320 322 322 318 312 302 296 297 299 301 306 310 313 314 313 313 316 310 288 270 262 260 262 262 260 259 255 247 243 251 267 280 25 22 359 340 305 275 262 247 236 231 225 212 198 190 184 179 181 193 208 223 239 252 259 260 254 247 238 226 218 213 206 201 201 206 213 218 225 230 233 234 238 245 249 253 260 263 264 263 260 261 266 269 271
319 322 323 318 310 300 296 297 298 298 301 306 310 311 309 309 315 311 290 272 264 261 258 252 251 250 245 244 241 229 212 184 154 220 317 334 337 294 233 224 231 233 230 228 226 225 226 227 226 230 235 241 246 245 239 228 214 204 199 197 195 191 185 185 192 202 212 220 225 229 231 232 236 242 247 258 270 270 261 252 252 261 272 277 281
317 319 320 316 307 297 291 292 295 297 301 306 309 308 305 304 304 299 284 267 256 253 249 241 240 237 232 240 241 217 190 176 174 215 260 286 312 313 236 221 227 233 234 233 233 236 242 246 241 233 228 221 209 192 175 166 167 175 180 185 185 177 167 166 174 186 205 221 226 229 231 232 235 241 250 259 266 266 253 245 252 270 282 288 291
314 316 320 315 303 292 286 288 294 299 302 308 310 307 304 302 298 289 275 257 242 236 230 226 228 228 228 233 231 215 197 179 171 208 243 257 266 281 256 230 229 235 239 233 226 219 208 181 156 145 134 128 131 132 131 134 146 159 168 169 167 162 157 154 152 147 147 175 203 216 226 231 235 242 247 246 240 238 257 268 288 302 292 288 298
315 314 317 315 306 296 290 289 291 294 299 308 313 310 306 304 302 292 270 250 237 228 223 221 222 226 228 226 219 210 202 196 184 200 226 239 245 254 249 224 222 231 231 205 182 166 153 141 130 124 119 116 117 117 117 124 132 137 137 135 135 141 145 147 146 144 142 142 145 154 177 199 210 213 209 201 187 186 305 322 328 310 276 255 276
318 314 314 313 308 301 296 294 294 295 301 306 308 310 308 305 303 294 269 244 233 229 227 225 224 226 226 220 216 212 210 213 208 200 209 220 231 240 229 206 207 212 192 170 164 156 151 148 141 134 136 143 143 137 132 133 137 136 135 135 134 139 150 155 153 151 149 153 160 161 153 150 154 154 154 163 176 212 322 329 320 294 256 233 238
316 309 306 303 300 296 296 299 297 294 298 300 300 302 304 300 297 292 273 244 230 229 230 228 225 223 220 218 219 219 220 224 217 197 199 208 218 223 219 207 202 194 170 167 168 163 158 153 143 132 131 142 153 154 149 144 141 138 142 149 151 155 168 176 174 169 167 168 175 182 183 181 180 181 195 220 236 251 311 355 346 312 261 247 258
315 308 303 302 301 296 286 280 280 284 290 295 295 295 295 293 292 288 274 250 232 223 220 219 217 213 212 213 214 214 218 219 202 185 192 204 209 210 213 205 194 185 170 170 173 169 161 153 148 144 137 130 144 161 161 155 149 140 140 150 160 177 196 203 199 192 189 184 182 195 205 202 197 210 235 249 256 261 270 307 323 316 299 286 287
318 313 308 306 304 296 283 272 272 278 284 286 287 289 290 290 290 285 272 254 235 220 213 207 198 194 195 194 189 190 198 195 182 180 192 202 197 178 152 147 159 163 157 159 166 165 157 151 153 153 140 130 142 156 150 145 151 159 164 165 165 186 214 216 209 200 196 194 193 203 214 213 210 228 254 264 264 263 268 279 283 284 286 287 286
319 312 310 306 300 294 286 279 277 280 281 278 281 286 288 288 289 285 269 249 232 219 209 196 181 177 182 182 174 173 178 177 174 180 190 193 176 148 133 127 131 138 139 143 153 158 156 157 162 159 148 148 157 160 153 147 153 171 184 187 187 199 222 217 207 201 200 203 205 205 216 230 237 250 264 268 263 260 271 286 289 284 277 274 275
323 314 309 304 298 292 286 278 277 282 283 279 279 283 285 288 291 289 271 249 232 216 200 189 182 176 175 174 168 161 161 165 170 175 178 173 154 136 129 127 129 133 134 136 144 152 160 170 173 165 155 156 162 162 162 167 173 179 184 188 198 224 253 247 226 216 211 212 217 222 234 247 252 256 262 264 261 262 273 285 292 290 280 269 265
327 320 311 304 299 294 286 275 273 282 285 281 279 283 285 285 286 285 273 252 230 203 183 184 185 177 167 160 156 150 146 147 153 159 158 152 144 135 129 131 138 143 144 144 144 149 160 171 173 166 159 160 165 166 168 181 189 186 178 177 194 226 240 232 232 236 232 231 237 245 254 262 263 263 266 267 265 265 269 275 281 285 281 274 267
327 323 313 305 298 291 284 276 271 277 284 281 280 283 285 284 284 279 266 250 231 208 192 189 187 178 169 162 152 146 141 134 133 138 139 136 135 132 129 136 151 162 164 158 149 147 154 165 173 174 172 168 170 175 182 193 199 193 185 184 194 205 211 215 221 224 223 224 228 233 246 260 266 270 277 276 267 262 263 264 267 269 271 272 270
324 322 311 304 295 284 279 273 267 271 280 279 279 283 286 292 295 282 262 247 237 226 214 206 198 190 189 186 173 159 155 146 137 136 137 137 140 143 142 147 160 168 169 164 155 149 151 163 177 186 188 184 182 188 194 196 199 203 205 206 207 203 201 206 216 221 221 220 220 226 236 245 247 250 261 269 269 266 264 262 261 260 261 264 266
318 313 306 304 298 286 279 275 274 277 281 278 279 292 294 294 296 287 269 249 238 236 234 225 214 205 202 199 185 168 163 161 154 147 145 143 145 148 150 153 161 169 172 173 171 167 167 173 178 184 192 198 200 202 202 197 195 202 209 216 221 220 215 216 225 233 235 235 236 238 241 241 241 243 247 251 255 260 262 261 258 256 257 261 263
311 306 302 304 300 291 286 288 290 287 278 271 274 292 299 299 299 295 281 255 241 244 249 221 193 182 180 184 181 173 173 174 166 153 149 148 145 144 146 151 163 172 176 178 180 183 194 203 197 189 191 199 203 205 206 206 205 206 209 216 224 228 228 229 234 240 243 245 248 250 250 249 251 252 251 249 249 252 254 254 253 253 255 258 260
313 310 307 311 308 297 291 297 298 287 275 271 269 275 302 321 317 303 283 239 224 226 216 179 171 176 181 185 184 183 184 182 169 155 153 152 145 140 140 146 159 172 181 186 189 194 204 216 217 208 202 203 207 211 214 217 219 221 225 230 234 236 237 239 242 247 251 254 256 257 257 256 255 255 255 254 253 252 252 251 251 253 254 253 253
315 318 311 311 317 309 301 302 301 292 283 273 261 259 295 340 337 320 265 178 172 174 175 174 176 184 189 187 187 191 194 184 165 156 154 152 150 151 151 152 160 174 183 186 189 192 189 186 192 197 199 202 208 213 218 224 229 233 239 243 243 243 244 245 247 251 255 258 261 263 262 261 258 256 257 258 256 256 256 254 250 249 249 249 251
304 325 314 307 312 315 308 306 302 291 281 269 255 247 245 341 356 17 108 143 144 145 152 158 167 182 189 187 187 192 189 168 152 151 152 153 161 168 165 160 165 176 178 173 172 175 172 165 168 178 185 190 196 202 209 219 227 234 241 244 244 247 251 254 257 261 263 266 269 270 270 270 268 264 262 261 258 255 253 249 245 245 249 253 254
292 316 315 308 314 326 326 321 311 291 275 264 240 198 162 124 29 63 118 134 133 135 143 149 158 173 181 179 180 185 180 158 151 157 159 159 164 168 163 158 163 170 168 162 161 167 173 175 178 181 184 188 194 202 213 224 232 241 250 256 261 268 274 276 279 282 280 277 276 275 275 279 282 275 266 262 256 246 242 248 258 261 259 258 259
295 315 324 312 322 357 16 360 332 284 263 251 185 162 159 150 126 127 137 139 138 141 148 152 157 164 166 166 169 176 181 177 175 175 172 168 169 167 161 157 159 159 157 157 159 165 172 179 181 182 185 190 198 209 224 239 251 258 263 268 272 276 280 283 285 284 281 278 276 274 270 270 271 269 263 260 256 251 252 262 269 265 257 257 266
296 347 4 336 321 345 46 54 65 136 170 175 150 144 158 175 168 155 143 137 139 145 151 156 164 168 165 162 163 169 176 178 175 168 162 160 161 160 156 153 150 148 148 150 153 157 162 165 165 166 174 186 202 224 238 246 252 257 262 268 273 276 279 281 281 279 278 276 275 274 271 266 261 257 254 253 253 253 252 252 254 256 260 270 281
293 295 359 349 332 338 64 73 78 110 139 161 158 150 157 164 165 165 157 140 138 149 157 161 165 166 163 159 159 161 163 162 156 149 146 146 147 148 148 146 143 142 143 145 147 150 153 156 158 165 180 200 221 239 247 251 256 260 265 269 273 275 278 280 279 280 283 284 282 283 284 273 237 209 211 220 226 230 233 241 254 270 289 308 84